Location: Cabeza Gorda
(40.0667°N, 4.9667°W)
Time: 19:06:53
(UTC+00:00)

MOS 1 Rocket - Pass Details

Date: 15 January 2026
Orbit: 608 x 815 km, 97.4° (Epoch: 11 February)

Event Time Altitude Azimuth Distance (km) Brightness Sun altitude
Rises 06:30:11 0° 15° (NNE) 3,020 6.6 -13.2°
Reaches altitude 10° 06:32:31 10° 20° (NNE) 2,073 5.8 -12.8°
Maximum altitude 06:36:57 58° 100° (E) 737 3.8 -12.0°
Drops below altitude 10° 06:41:10 10° 180° (S) 1,974 5.9 -11.2°
Sets 06:43:20 0° 184° (S) 2,862 6.7 -10.8°
